Tracking 29487 objects as of 10-Sep-2024
HD Live streaming from Space Station
objects crossing your sky now

FENGYUN 1C DEB

Track FENGYUN 1C DEB now!
10-day predictions


NORAD ID: 33605
Int'l Code: 1999-025DCN
Perigee: 838.7 km
Apogee: 920.0 km
Inclination: 98.7 °
Period: 102.4 minutes
Semi major axis: 7250 km
RCS: 0.0013 m2 (small)
Launch date: May 10, 1999
Source: People's Republic of China (PRC)
Launch site: Taiyaun Space Center, China (TSC)

Note: This is SATELLITE DEBRIS
Your satellite tracking list
Your tracking list is empty




NASA's NSSDC Master Catalog

Two Line Element Set (TLE):
1 33605U 99025DCN 24253.82925303  .00003385  00000-0  20506-2 0  9994
2 33605  98.6997 264.1593 0056082 290.3298 243.2262 14.06266706858179
Source of the keplerian elements: AFSPC